パンスターズ彗星

399P/PanSTARRS (2006)

English version
Home page
Updated on February 21, 2021

---------------------------------------------------------------------

・ プロフィール

・ 軌道要素

Epoch 2006 July 4.0 TT = JDT 2453920.5                                          
T 2006 June 18.93926 TT                                 Rudenko                 
q   2.1601354            (2000.0)            P               Q                  
n   0.13112760     Peri.  213.76718     +0.48501998     -0.86796525             
a   3.8371311      Node   207.67078     +0.84454879     +0.49657497             
e   0.4370442      Incl.   13.28734     +0.22692062     +0.00704522             
P   7.52                                                                        
From 300 observations 2013 July 16-2020 Dec. 13, mean residual 0".8.            

・ 光度変化

        m1 = 13.2 + 5 logΔ + 10.0 log r           [    ,-125]  (              〜2006年 2月13日)
        m1 = 13.2 + 5 logΔ + 10.0 log r(t + 250)  [-125,    ]  (2006年 2月13日〜              )

---------------------------------------------------------------------

軌道要素はM.P.E.C. 2021-A190に掲載されたものです。
光度グラフはComet for Windowsで作成したものです。

---------------------------------------------------------------------

Copyright(C) Seiichi Yoshida (comet@aerith.net). All rights reserved.